Time,TemperatureF,DewpointF,PressureIn,WindDirection,WindDirectionDegrees,WindSpeedMPH,WindSpeedGustMPH,Humidity,HourlyPrecipIn,Conditions,Clouds,dailyrainin,SoftwareType,DateUTC
2013-07-01 00:01:00,66.0,64.0,-100.00,North,0,2.0,6.0,90,0.00,,,-99.99,,2013-07-01 04:01:00,
2013-07-01 00:11:00,66.0,64.0,-100.00,North,0,1.0,6.0,91,0.00,,,-99.99,,2013-07-01 04:11:00,
2013-07-01 00:22:00,66.0,64.0,-100.00,North,5,2.0,4.0,91,0.00,,,-99.99,,2013-07-01 04:22:00,
2013-07-01 00:32:00,66.0,64.0,-100.00,NE,45,2.0,4.0,91,0.00,,,-99.99,,2013-07-01 04:32:00,
2013-07-01 00:43:00,66.0,64.0,-100.00,NNE,20,2.0,5.0,91,0.00,,,-99.99,,2013-07-01 04:43:00,
2013-07-01 00:53:00,66.0,64.0,-100.00,NNE,20,2.0,5.0,91,0.00,,,-99.99,,2013-07-01 04:53:00,
2013-07-01 01:02:00,66.0,64.0,-100.00,North,0,3.0,6.0,91,0.00,,,-99.99,,2013-07-01 05:02:00,
2013-07-01 01:11:00,66.0,64.0,-100.00,North,0,3.0,6.0,91,0.00,,,-99.99,,2013-07-01 05:11:00,
2013-07-01 01:22:00,66.0,64.0,-100.00,North,5,4.0,9.0,91,0.00,,,-99.99,,2013-07-01 05:22:00,
2013-07-01 01:33:00,66.0,64.0,-100.00,North,0,3.0,9.0,91,0.00,,,-99.99,,2013-07-01 05:33:00,
2013-07-01 01:42:00,66.0,64.0,-100.00,North,0,3.0,9.0,91,0.00,,,-99.99,,2013-07-01 05:42:00,
2013-07-01 01:52:00,66.0,63.0,-100.00,North,10,3.0,8.0,91,0.00,,,-99.99,,2013-07-01 05:52:00,
2013-07-01 02:02:00,65.0,62.0,-100.00,NNE,25,4.0,7.0,90,0.00,,,-99.99,,2013-07-01 06:02:00,
2013-07-01 02:12:00,65.0,62.0,-100.00,North,0,4.0,8.0,88,0.00,,,-99.99,,2013-07-01 06:12:00,
2013-07-01 02:24:00,65.0,61.0,-100.00,NE,40,3.0,6.0,86,0.00,,,-99.99,,2013-07-01 06:24:00,
2013-07-01 02:33:00,65.0,61.0,-100.00,NNE,15,2.0,7.0,85,0.00,,,-99.99,,2013-07-01 06:33:00,
2013-07-01 02:43:00,65.0,60.0,-100.00,NNE,25,3.0,8.0,83,0.00,,,-99.99,,2013-07-01 06:43:00,
2013-07-01 02:53:00,65.0,59.0,-100.00,North,5,4.0,8.0,81,0.00,,,-99.99,,2013-07-01 06:53:00,
2013-07-01 03:01:00,65.0,59.0,-100.00,NNE,30,3.0,7.0,81,0.00,,,-99.99,,2013-07-01 07:01:00,
2013-07-01 03:11:00,65.0,59.0,-100.00,North,5,3.0,6.0,81,0.00,,,-99.99,,2013-07-01 07:11:00,
2013-07-01 03:22:00,65.0,59.0,-100.00,NNE,20,4.0,7.0,81,0.00,,,-99.99,,2013-07-01 07:22:00,
2013-07-01 03:33:00,65.0,59.0,-100.00,NNE,15,3.0,7.0,81,0.00,,,-99.99,,2013-07-01 07:33:00,
2013-07-01 03:43:00,65.0,60.0,-100.00,North,10,3.0,7.0,83,0.00,,,-99.99,,2013-07-01 07:43:00,
2013-07-01 03:53:00,65.0,60.0,-100.00,North,350,2.0,6.0,84,0.00,,,-99.99,,2013-07-01 07:53:00,
2013-07-01 04:01:00,65.0,60.0,-100.00,North,0,2.0,5.0,85,0.00,,,-99.99,,2013-07-01 08:01:00,
2013-07-01 04:11:00,65.0,60.0,-100.00,North,0,2.0,4.0,86,0.00,,,-99.99,,2013-07-01 08:11:00,
2013-07-01 04:22:00,65.0,60.0,-100.00,North,0,2.0,4.0,86,0.00,,,-99.99,,2013-07-01 08:22:00,
2013-07-01 04:33:00,64.0,61.0,-100.00,North,10,3.0,6.0,87,0.00,,,-99.99,,2013-07-01 08:33:00,
2013-07-01 04:42:00,64.0,61.0,-100.00,NNE,15,1.0,5.0,88,0.00,,,-99.99,,2013-07-01 08:42:00,
2013-07-01 04:52:00,65.0,61.0,-100.00,North,0,2.0,6.0,89,0.00,,,-99.99,,2013-07-01 08:52:00,
2013-07-01 05:02:00,65.0,62.0,-100.00,NW,310,1.0,4.0,89,0.00,,,-99.99,,2013-07-01 09:02:00,
2013-07-01 05:12:00,65.0,62.0,-100.00,West,280,1.0,2.0,90,0.00,,,-99.99,,2013-07-01 09:12:00,
2013-07-01 05:22:00,65.0,62.0,-100.00,North,350,0.0,1.0,91,0.00,,,-99.99,,2013-07-01 09:22:00,
2013-07-01 05:34:00,65.0,62.0,-100.00,North,355,1.0,3.0,91,0.00,,,-99.99,,2013-07-01 09:34:00,
2013-07-01 05:43:00,65.0,62.0,-100.00,North,10,0.0,3.0,92,0.00,,,-99.99,,2013-07-01 09:43:00,
2013-07-01 05:53:00,65.0,63.0,-100.00,North,0,2.0,4.0,93,0.00,,,-99.99,,2013-07-01 09:53:00,
2013-07-01 06:03:00,65.0,63.0,-100.00,North,0,2.0,4.0,93,0.00,,,-99.99,,2013-07-01 10:03:00,
2013-07-01 06:11:00,65.0,64.0,-100.00,North,0,2.0,7.0,94,0.00,,,-99.99,,2013-07-01 10:11:00,
2013-07-01 06:22:00,65.0,64.0,-100.00,NNE,30,0.0,4.0,94,0.00,,,-99.99,,2013-07-01 10:22:00,
2013-07-01 06:33:00,65.0,64.0,-100.00,WNW,295,1.0,3.0,94,0.00,,,-99.99,,2013-07-01 10:33:00,
2013-07-01 06:43:00,65.0,64.0,-100.00,North,10,0.0,3.0,94,0.00,,,-99.99,,2013-07-01 10:43:00,
2013-07-01 06:52:00,65.0,64.0,-100.00,NW,305,0.0,2.0,94,0.00,,,-99.99,,2013-07-01 10:52:00,
2013-07-01 07:02:00,65.0,64.0,-100.00,North,0,1.0,3.0,94,0.00,,,-99.99,,2013-07-01 11:02:00,
2013-07-01 07:11:00,66.0,64.0,-100.00,North,0,2.0,6.0,94,0.00,,,-99.99,,2013-07-01 11:11:00,
2013-07-01 07:22:00,66.0,64.0,-100.00,NNE,30,3.0,6.0,94,0.00,,,-99.99,,2013-07-01 11:22:00,
2013-07-01 07:33:00,66.0,65.0,-100.00,NW,315,1.0,5.0,94,0.00,,,-99.99,,2013-07-01 11:33:00,
2013-07-01 07:43:00,66.0,65.0,-100.00,NW,315,1.0,5.0,94,0.00,,,-99.99,,2013-07-01 11:43:00,
2013-07-01 07:52:00,67.0,65.0,-100.00,North,0,3.0,9.0,94,0.00,,,-99.99,,2013-07-01 11:52:00,
2013-07-01 08:01:00,67.0,65.0,-100.00,North,0,4.0,9.0,94,0.00,,,-99.99,,2013-07-01 12:01:00,
2013-07-01 08:11:00,67.0,66.0,-100.00,North,350,3.0,9.0,94,0.00,,,-99.99,,2013-07-01 12:11:00,
2013-07-01 08:22:00,68.0,66.0,-100.00,North,10,4.0,9.0,94,0.00,,,-99.99,,2013-07-01 12:22:00,
2013-07-01 08:33:00,68.0,66.0,-100.00,North,10,4.0,9.0,94,0.00,,,-99.99,,2013-07-01 12:33:00,
2013-07-01 08:43:00,68.0,66.0,-100.00,North,0,5.0,11.0,94,0.00,,,-99.99,,2013-07-01 12:43:00,
2013-07-01 08:53:00,68.0,66.0,-100.00,NNE,15,4.0,10.0,94,0.00,,,-99.99,,2013-07-01 12:53:00,
2013-07-01 09:02:00,68.0,67.0,-100.00,NNE,15,3.0,11.0,94,0.00,,,-99.99,,2013-07-01 13:02:00,
2013-07-01 09:12:00,68.0,66.0,-100.00,NNE,30,4.0,12.0,94,0.00,,,-99.99,,2013-07-01 13:12:00,
2013-07-01 09:23:00,68.0,66.0,-100.00,North,5,7.0,14.0,94,0.00,,,-99.99,,2013-07-01 13:23:00,
2013-07-01 09:53:00,67.0,66.0,-100.00,North,0,4.0,8.0,94,0.55,,,-99.99,,2013-07-01 13:53:00,
2013-07-01 10:22:00,67.0,65.0,-100.00,NNE,15,4.0,12.0,94,2.24,,,-99.99,,2013-07-01 14:22:00,
2013-07-01 10:34:00,67.0,65.0,-100.00,NNE,15,2.0,6.0,94,3.94,,,-99.99,,2013-07-01 14:34:00,
2013-07-01 10:43:00,67.0,65.0,-100.00,NNE,15,2.0,6.0,94,3.94,,,-99.99,,2013-07-01 14:43:00,
2013-07-01 10:52:00,67.0,65.0,-100.00,NNE,15,2.0,6.0,94,3.94,,,-99.99,,2013-07-01 14:52:00,
2013-07-01 11:02:00,67.0,65.0,-100.00,NNE,15,2.0,6.0,94,3.94,,,-99.99,,2013-07-01 15:02:00,
2013-07-01 11:43:00,66.0,64.0,-100.00,NE,40,3.0,9.0,95,13.03,,,-99.99,,2013-07-01 15:43:00,
2013-07-01 12:01:00,65.0,64.0,-100.00,NE,35,3.0,9.0,95,26.06,,,-99.99,,2013-07-01 16:01:00,
2013-07-01 13:02:00,65.0,64.0,-100.00,NNE,20,1.0,8.0,96,0.00,,,-99.99,,2013-07-01 17:02:00,
2013-07-01 14:02:00,66.0,65.0,-100.00,NE,35,5.0,9.0,96,0.00,,,-99.99,,2013-07-01 18:02:00,
2013-07-01 14:43:00,66.0,65.0,-100.00,North,0,7.0,13.0,96,0.00,,,-99.99,,2013-07-01 18:43:00,
2013-07-01 14:53:00,66.0,65.0,-100.00,North,0,7.0,13.0,96,0.00,,,-99.99,,2013-07-01 18:53:00,
2013-07-01 15:11:00,66.0,65.0,-100.00,North,10,5.0,15.0,96,0.00,,,-99.99,,2013-07-01 19:11:00,
2013-07-01 15:44:00,67.0,66.0,-100.00,NNE,20,7.0,13.0,96,0.00,,,-99.99,,2013-07-01 19:44:00,
2013-07-01 16:02:00,67.0,66.0,-100.00,NNE,15,6.0,14.0,94,0.00,,,-99.99,,2013-07-01 20:02:00,
2013-07-01 16:11:00,67.0,65.0,-100.00,NNE,20,10.0,20.0,92,0.00,,,-99.99,,2013-07-01 20:11:00,
2013-07-01 16:22:00,67.0,65.0,-100.00,North,0,7.0,16.0,90,0.00,,,-99.99,,2013-07-01 20:22:00,
2013-07-01 16:34:00,67.0,65.0,-100.00,NNE,15,7.0,15.0,90,0.00,,,-99.99,,2013-07-01 20:34:00,
2013-07-01 16:43:00,67.0,64.0,-100.00,North,5,5.0,19.0,89,0.00,,,-99.99,,2013-07-01 20:43:00,
2013-07-01 17:02:00,68.0,64.0,-100.00,North,0,7.0,14.0,88,0.00,,,-99.99,,2013-07-01 21:02:00,
2013-07-01 17:34:00,68.0,63.0,-100.00,North,10,11.0,19.0,85,0.00,,,-99.99,,2013-07-01 21:34:00,
2013-07-01 17:43:00,67.0,63.0,-100.00,NNE,30,9.0,17.0,86,0.00,,,-99.99,,2013-07-01 21:43:00,
2013-07-01 18:11:00,67.0,63.0,-100.00,NNE,30,9.0,17.0,88,0.00,,,-99.99,,2013-07-01 22:11:00,
2013-07-01 18:33:00,66.0,63.0,-100.00,North,5,6.0,16.0,88,0.00,,,-99.99,,2013-07-01 22:33:00,
2013-07-01 18:43:00,66.0,63.0,-100.00,NNE,25,7.0,13.0,89,0.00,,,-99.99,,2013-07-01 22:43:00,
2013-07-01 18:53:00,66.0,63.0,-100.00,North,5,8.0,17.0,90,0.00,,,-99.99,,2013-07-01 22:53:00,
2013-07-01 19:01:00,66.0,63.0,-100.00,North,5,8.0,17.0,90,0.00,,,-99.99,,2013-07-01 23:01:00,
2013-07-01 19:11:00,66.0,63.0,-100.00,North,0,6.0,13.0,91,0.00,,,-99.99,,2013-07-01 23:11:00,
2013-07-01 19:22:00,66.0,63.0,-100.00,North,0,6.0,13.0,91,0.00,,,-99.99,,2013-07-01 23:22:00,
2013-07-01 19:33:00,66.0,63.0,-100.00,North,0,6.0,13.0,91,0.00,,,-99.99,,2013-07-01 23:33:00,
2013-07-01 19:44:00,66.0,64.0,-100.00,North,10,4.0,9.0,92,0.00,,,-99.99,,2013-07-01 23:44:00,
2013-07-01 19:53:00,66.0,64.0,-100.00,NNE,20,6.0,10.0,92,0.00,,,-99.99,,2013-07-01 23:53:00,
2013-07-01 20:01:00,66.0,64.0,-100.00,NNE,15,7.0,12.0,92,0.00,,,-99.99,,2013-07-02 00:01:00,
2013-07-01 20:12:00,66.0,64.0,-100.00,NNE,15,6.0,12.0,93,0.00,,,-99.99,,2013-07-02 00:12:00,
2013-07-01 20:22:00,66.0,64.0,-100.00,North,0,7.0,16.0,93,0.00,,,-99.99,,2013-07-02 00:22:00,
2013-07-01 20:34:00,66.0,64.0,-100.00,North,0,6.0,12.0,93,0.00,,,-99.99,,2013-07-02 00:34:00,
2013-07-01 20:43:00,66.0,64.0,-100.00,North,0,6.0,11.0,93,0.00,,,-99.99,,2013-07-02 00:43:00,
2013-07-01 20:53:00,66.0,64.0,-100.00,North,10,4.0,11.0,93,0.00,,,-99.99,,2013-07-02 00:53:00,
2013-07-01 21:01:00,66.0,64.0,-100.00,North,10,6.0,12.0,93,0.00,,,-99.99,,2013-07-02 01:01:00,
2013-07-01 21:33:00,66.0,64.0,-100.00,North,0,4.0,8.0,94,0.00,,,-99.99,,2013-07-02 01:33:00,
2013-07-01 22:02:00,66.0,65.0,-100.00,NNE,25,7.0,13.0,94,0.00,,,-99.99,,2013-07-02 02:02:00,
2013-07-01 23:02:00,66.0,64.0,-100.00,North,5,7.0,13.0,93,0.00,,,-99.99,,2013-07-02 03:02:00,
2013-07-01 23:12:00,66.0,65.0,-100.00,North,0,7.0,15.0,93,0.00,,,-99.99,,2013-07-02 03:12:00,
2013-07-01 23:24:00,66.0,65.0,-100.00,NNE,20,5.0,12.0,93,0.00,,,-99.99,,2013-07-02 03:24:00,
2013-07-01 23:32:00,66.0,65.0,-100.00,NNE,30,7.0,17.0,93,0.00,,,-99.99,,2013-07-02 03:32:00,
2013-07-01 23:43:00,66.0,64.0,-100.00,NNE,20,9.0,19.0,93,0.00,,,-99.99,,2013-07-02 03:43:00,
2013-07-01 23:53:00,66.0,64.0,-100.00,North,0,7.0,16.0,93,0.00,,,-99.99,,2013-07-02 03:53:00,